period_start,C,m1,H,J0,J1,J2,J3,J4,J5,JA,JB,JC,JD,JJ,JK,JN,#
2013-07-23 00:00:05,0.00,0.04,0.00,27.61,30.02,32.56,5.88,31.88,1023.45,2045.00,3458.00,3339.05,3630.05,349.15,320.36,3.12,0000 0000 0000 0000 000000
2013-07-23 00:01:05,0.01,0.04,0.00,27.62,30.02,32.54,5.84,31.83,1023.45,2045.00,3458.00,3339.03,3630.04,349.93,321.07,3.12,0000 0000 0000 0000 000000
2013-07-23 00:02:06,0.00,0.04,0.00,27.64,30.02,32.55,5.97,32.29,1023.45,2045.00,3458.00,3339.01,3630.02,350.75,321.98,3.13,0000 0000 0000 0000 000000
2013-07-23 00:03:06,0.00,0.04,0.00,27.62,30.03,32.57,5.90,31.75,1023.45,2045.00,3458.00,3339.00,3630.00,349.73,320.72,3.14,0000 0000 0000 0000 000000
2013-07-23 00:04:06,0.00,0.04,0.00,27.64,30.04,32.57,6.04,32.33,1023.45,2045.00,3458.00,3339.00,3630.00,350.19,321.59,3.14,0000 0000 0000 0000 000000
2013-07-23 00:05:06,0.00,0.04,0.00,27.66,30.05,32.56,5.88,31.96,1023.45,2045.00,3458.00,3339.00,3630.00,349.81,320.92,3.15,0000 0000 0000 0000 000000
2013-07-23 00:06:07,0.00,0.04,0.00,27.71,30.05,32.56,6.03,32.00,1023.45,2044.99,3457.97,3339.00,3630.00,350.82,321.43,3.15,0000 0000 0000 0000 000000
2013-07-23 00:07:07,0.00,0.04,0.00,27.70,30.05,32.57,5.95,31.92,1023.45,2044.98,3457.87,3339.00,3630.00,350.77,322.04,3.16,0000 0000 0000 0000 000000
2013-07-23 00:08:07,0.01,0.04,0.00,27.68,30.05,32.58,5.84,31.83,1023.45,2044.99,3457.66,3338.99,3629.99,348.96,320.12,3.17,0000 0000 0000 0000 000000
2013-07-23 00:09:08,0.03,0.04,0.00,27.71,30.06,32.61,6.18,32.29,1023.45,2044.99,3457.62,3338.97,3629.98,350.20,320.52,3.17,0000 0000 0000 0000 000000
2013-07-23 00:10:08,0.01,0.04,0.00,27.70,30.07,32.60,5.94,32.04,1023.45,2044.99,3457.50,3338.98,3629.96,350.05,321.09,3.18,0000 0000 0000 0000 000000
2013-07-23 00:11:08,0.01,0.04,0.00,27.69,30.07,32.60,5.83,32.08,1023.45,2044.98,3457.27,3338.96,3629.86,349.95,321.02,3.18,0000 0000 0000 0000 000000
2013-07-23 00:12:09,0.04,0.04,0.00,27.65,30.07,32.61,5.89,31.71,1023.45,2044.99,3457.19,3338.91,3629.78,349.79,320.90,3.19,0000 0000 0000 0000 000000
2013-07-23 00:13:09,0.03,0.04,0.00,27.63,30.07,32.63,6.00,31.92,1023.45,2044.98,3457.12,3338.84,3629.61,349.89,321.02,3.20,0000 0000 0000 0000 000000
2013-07-23 00:14:09,0.05,0.04,0.00,27.65,30.08,32.62,6.02,32.13,1023.45,2044.96,3457.04,3338.56,3629.31,350.45,321.21,3.20,0000 0000 0000 0000 000000
2013-07-23 00:15:09,0.06,0.04,0.00,27.68,30.09,32.62,5.88,31.92,1023.45,2044.95,3457.02,3338.44,3629.21,349.91,320.99,3.21,0000 0000 0000 0000 000000
2013-07-23 00:16:10,0.02,0.04,0.00,27.67,30.10,32.62,5.97,31.88,1023.45,2044.97,3457.02,3338.44,3629.17,350.74,321.49,3.21,0000 0000 0000 0000 000000
2013-07-23 00:17:10,0.02,0.04,0.00,27.69,30.10,32.66,6.07,31.83,1023.45,2044.97,3457.03,3338.38,3629.17,351.30,322.61,3.22,0000 0000 0000 0000 000000
2013-07-23 00:18:10,0.00,0.04,0.00,27.71,30.10,32.65,5.88,31.67,1023.45,2044.96,3457.01,3338.33,3629.10,349.91,320.95,3.22,0000 0000 0000 0000 000000
2013-07-23 00:19:10,0.00,0.04,0.00,27.70,30.10,32.65,5.94,31.75,1023.45,2044.94,3457.00,3338.19,3629.05,351.08,321.95,3.23,0000 0000 0000 0000 000000
2013-07-23 00:20:11,0.03,0.04,0.00,27.74,30.12,32.65,5.83,31.71,1023.45,2044.93,3457.00,3338.12,3629.03,349.88,321.34,3.24,0000 0000 0000 0000 000000
2013-07-23 00:21:11,0.02,0.04,0.00,27.74,30.12,32.64,5.87,31.75,1023.45,2044.95,3457.00,3338.09,3629.01,350.04,321.05,3.24,0000 0000 0000 0000 000000
2013-07-23 00:22:11,0.01,0.04,0.00,27.74,30.12,32.65,5.92,31.79,1023.45,2044.91,3457.01,3338.05,3629.02,350.91,321.85,3.25,0000 0000 0000 0000 000000
2013-07-23 00:23:11,-0.01,0.04,0.00,27.76,30.12,32.64,5.89,31.50,1023.45,2044.88,3457.00,3338.04,3629.00,350.31,321.01,3.25,0000 0000 0000 0000 000000
2013-07-23 00:24:12,-0.03,0.04,0.00,27.78,30.13,32.67,5.96,32.00,1023.45,2044.81,3457.00,3338.01,3629.00,349.25,320.27,3.26,0000 0000 0000 0000 000000
2013-07-23 00:25:12,-0.02,0.04,0.00,27.77,30.14,32.68,5.86,32.04,1023.45,2044.75,3457.00,3338.00,3629.00,349.75,320.51,3.27,0000 0000 0000 0000 000000
2013-07-23 00:26:12,-0.06,0.04,0.00,27.79,30.15,32.69,5.94,31.88,1023.45,2044.67,3456.99,3338.01,3628.99,349.90,321.42,3.27,0000 0000 0000 0000 000000
2013-07-23 00:27:12,-0.05,0.04,0.00,27.80,30.15,32.69,6.03,31.71,1023.45,2044.65,3456.98,3338.00,3628.97,350.14,321.07,3.28,0000 0000 0000 0000 000000
2013-07-23 00:28:13,-0.03,0.04,0.00,27.82,30.15,32.68,6.00,31.83,1023.45,2044.58,3456.94,3338.00,3628.96,351.18,322.00,3.28,0000 0000 0000 0000 000000
2013-07-23 00:29:13,-0.02,0.04,0.00,27.88,30.15,32.67,5.97,31.71,1023.45,2044.61,3456.92,3338.00,3628.96,350.81,321.59,3.29,0000 0000 0000 0000 000000
2013-07-23 00:30:13,-0.01,0.04,0.00,27.88,30.17,32.70,5.87,31.71,1023.45,2044.48,3456.93,3338.00,3628.88,350.00,320.82,3.29,0000 0000 0000 0000 000000
2013-07-23 00:31:14,-0.07,0.04,0.00,27.90,30.17,32.69,6.06,31.79,1023.45,2044.35,3456.75,3337.99,3628.59,348.75,319.69,3.30,0000 0000 0000 0000 000000
2013-07-23 00:32:14,-0.03,0.04,0.00,27.90,30.17,32.71,5.91,31.96,1023.46,2044.23,3456.64,3337.97,3628.35,350.23,320.88,3.31,0000 0000 0000 0000 000000
2013-07-23 00:33:14,-0.01,0.04,0.00,27.89,30.17,32.71,5.91,31.79,1023.45,2044.19,3456.36,3337.95,3628.18,351.09,321.85,3.31,0000 0000 0000 0000 000000
2013-07-23 00:34:14,0.01,0.04,0.00,27.91,30.18,32.72,5.97,32.17,1023.45,2044.13,3456.16,3337.72,3628.08,349.82,320.31,3.32,0000 0000 0000 0000 000000
2013-07-23 00:35:15,0.04,0.04,0.00,27.86,30.19,32.73,5.86,31.79,1023.46,2044.09,3456.06,3337.45,3628.03,348.98,319.94,3.32,0000 0000 0000 0000 000000
2013-07-23 00:36:15,0.04,0.04,0.00,27.89,30.20,32.74,5.83,32.08,1023.45,2044.06,3456.02,3337.22,3628.01,349.27,320.17,3.33,0000 0000 0000 0000 000000
2013-07-23 00:37:15,0.03,0.04,0.00,27.93,30.20,32.73,5.82,31.50,1023.45,2044.08,3456.00,3337.09,3628.00,349.63,320.39,3.34,0000 0000 0000 0000 000000
2013-07-23 00:38:16,0.02,0.04,0.00,27.94,30.20,32.72,5.82,31.46,1023.45,2044.06,3455.99,3337.06,3627.99,349.62,320.10,3.34,0000 0000 0000 0000 000000
2013-07-23 00:39:16,0.01,0.04,0.00,27.92,30.20,32.73,5.89,32.04,1023.45,2044.03,3455.98,3337.02,3627.99,350.63,321.07,3.35,0000 0000 0000 0000 000000
2013-07-23 00:40:16,-0.01,0.04,0.00,27.89,30.22,32.75,6.08,32.17,1023.45,2044.02,3455.95,3337.00,3627.99,350.83,321.47,3.35,0000 0000 0000 0000 000000
2013-07-23 00:41:17,0.00,0.04,0.00,27.87,30.22,32.75,5.89,31.46,1023.45,2044.01,3455.89,3337.00,3627.90,349.64,320.54,3.36,0000 0000 0000 0000 000000
2013-07-23 00:42:17,0.03,0.04,0.00,27.86,30.22,32.75,5.79,32.13,1023.45,2044.00,3455.59,3336.99,3627.48,348.86,319.84,3.37,0000 0000 0000 0000 000000
2013-07-23 00:43:17,0.07,0.04,0.00,27.90,30.22,32.76,5.98,32.38,1023.45,2044.00,3455.26,3336.98,3627.22,350.34,320.91,3.37,0000 0000 0000 0000 000000
2013-07-23 00:44:17,0.07,0.04,0.00,27.92,30.22,32.78,5.96,32.29,1023.46,2044.00,3455.11,3336.95,3627.10,350.36,320.68,3.38,0000 0000 0000 0000 000000
2013-07-23 00:45:18,0.04,0.04,0.00,27.91,30.24,32.78,5.89,31.96,1023.45,2044.00,3455.08,3336.88,3627.05,349.69,320.73,3.38,0000 0000 0000 0000 000000
2013-07-23 00:46:18,0.02,0.04,0.00,27.92,30.25,32.78,5.87,32.13,1023.46,2044.00,3455.04,3336.88,3627.05,349.35,320.22,3.39,0000 0000 0000 0000 000000
2013-07-23 00:47:18,0.00,0.04,0.00,27.93,30.25,32.78,5.97,31.96,1023.46,2044.00,3455.04,3336.80,3627.02,350.65,321.62,3.39,0000 0000 0000 0000 000000
2013-07-23 00:48:19,0.02,0.04,0.00,27.98,30.25,32.78,5.93,31.58,1023.45,2044.00,3455.02,3336.61,3627.00,350.81,321.50,3.40,0000 0000 0000 0000 000000
2013-07-23 00:49:19,0.03,0.04,0.00,27.98,30.25,32.79,6.08,31.88,1023.46,2044.00,3455.01,3336.63,3627.00,351.63,322.24,3.41,0000 0000 0000 0000 000000
2013-07-23 00:50:19,0.01,0.04,0.00,27.95,30.27,32.80,6.00,31.83,1023.47,2044.00,3455.00,3336.55,3627.00,349.94,320.36,3.41,0000 0000 0000 0000 000000
2013-07-23 00:51:20,0.03,0.04,0.00,27.98,30.27,32.80,6.02,32.17,1023.47,2044.00,3455.00,3336.26,3627.00,350.69,321.55,3.42,0000 0000 0000 0000 000000
2013-07-23 00:52:20,0.05,0.04,0.00,27.98,30.27,32.81,5.88,32.00,1023.45,2044.00,3455.00,3336.09,3627.00,349.71,320.49,3.42,0000 0000 0000 0000 000000
2013-07-23 00:53:20,0.03,0.04,0.00,27.98,30.27,32.81,5.89,31.79,1023.46,2044.00,3455.00,3336.03,3626.98,350.79,321.48,3.43,0000 0000 0000 0000 000000
2013-07-23 00:54:20,0.01,0.04,0.00,28.02,30.28,32.82,5.82,32.13,1023.47,2044.00,3455.00,3336.02,3626.96,348.82,319.98,3.44,0000 0000 0000 0000 000000
2013-07-23 00:55:20,0.01,0.04,0.00,28.00,30.30,32.82,6.08,32.17,1023.47,2044.00,3454.98,3336.00,3626.95,351.12,321.76,3.44,0000 0000 0000 0000 000000
2013-07-23 00:56:21,0.01,0.04,0.00,28.00,30.30,32.83,5.98,32.13,1023.47,2044.00,3454.77,3336.00,3626.87,350.49,321.19,3.45,0000 0000 0000 0000 000000
2013-07-23 00:57:21,0.03,0.04,0.00,28.00,30.30,32.84,5.98,31.96,1023.45,2044.00,3454.70,3336.00,3626.76,350.24,320.74,3.45,0000 0000 0000 0000 000000
2013-07-23 00:58:21,0.03,0.04,0.00,27.97,30.30,32.85,5.80,32.00,1023.45,2043.99,3454.53,3336.00,3626.62,349.23,320.05,3.46,0000 0000 0000 0000 000000
2013-07-23 00:59:21,0.03,0.04,0.00,27.98,30.31,32.85,5.86,32.25,1023.46,2043.98,3454.36,3335.99,3626.37,351.21,321.78,3.46,0000 0000 0000 0000 000000
2013-07-23 01:00:22,0.04,0.04,0.00,27.98,30.32,32.86,5.90,32.17,1023.45,2043.99,3454.19,3335.99,3626.30,350.67,321.28,3.47,0000 0000 0000 0000 000000
2013-07-23 01:01:22,0.03,0.04,0.00,27.97,30.32,32.87,5.75,31.92,1023.45,2043.98,3454.10,3335.98,3626.13,350.29,321.03,3.48,0000 0000 0000 0000 000000
2013-07-23 01:02:22,0.01,0.04,0.00,27.98,30.32,32.85,5.97,31.71,1023.45,2043.94,3454.07,3335.96,3626.06,351.75,322.55,3.48,0000 0000 0000 0000 000000
2013-07-23 01:03:23,0.01,0.04,0.00,27.98,30.32,32.88,6.00,32.00,1023.45,2043.96,3454.04,3335.93,3626.02,350.29,321.02,3.49,0000 0000 0000 0000 000000
2013-07-23 01:04:23,0.02,0.04,0.00,27.95,30.34,32.88,5.76,31.67,1023.45,2043.97,3454.02,3335.83,3626.00,349.55,320.37,3.49,0000 0000 0000 0000 000000
2013-07-23 01:05:23,0.04,0.04,0.00,27.99,30.35,32.88,5.93,31.46,1023.45,2043.93,3454.00,3335.63,3626.00,350.47,321.16,3.50,0000 0000 0000 0000 000000
2013-07-23 01:06:23,0.00,0.04,0.00,28.00,30.35,32.88,5.89,31.58,1023.45,2043.94,3454.00,3335.51,3626.00,350.64,321.21,3.51,0000 0000 0000 0000 000000
2013-07-23 01:07:24,0.03,0.04,0.00,28.00,30.35,32.89,5.80,31.83,1023.45,2043.96,3453.99,3335.41,3625.99,349.57,320.33,3.51,0000 0000 0000 0000 000000
2013-07-23 01:08:24,0.04,0.04,0.00,28.01,30.36,32.91,6.00,31.63,1023.45,2043.95,3453.99,3335.26,3625.99,350.58,321.26,3.52,0000 0000 0000 0000 000000
2013-07-23 01:09:24,0.03,0.04,0.00,28.05,30.37,32.92,5.92,31.33,1023.45,2043.95,3453.99,3335.15,3625.99,349.91,320.56,3.52,0000 0000 0000 0000 000000
2013-07-23 01:10:24,0.01,0.04,0.00,28.08,30.37,32.91,5.78,31.54,1023.45,2043.95,3453.99,3335.08,3625.97,349.93,321.41,3.53,0000 0000 0000 0000 000000
2013-07-23 01:11:25,0.01,0.04,0.00,28.08,30.37,32.92,5.88,32.04,1023.45,2043.95,3453.98,3335.06,3625.97,349.70,320.77,3.54,0000 0000 0000 0000 000000
2013-07-23 01:12:25,-0.00,0.04,0.00,28.09,30.37,32.95,6.07,32.21,1023.45,2043.91,3453.97,3335.03,3625.91,350.14,320.77,3.54,0000 0000 0000 0000 000000
2013-07-23 01:13:25,-0.04,0.04,0.00,28.09,30.39,32.93,5.95,31.79,1023.45,2043.78,3453.83,3335.01,3625.80,349.82,320.46,3.55,0000 0000 0000 0000 000000
2013-07-23 01:14:26,-0.02,0.04,0.00,28.08,30.40,32.92,5.91,31.88,1023.45,2043.76,3453.79,3335.00,3625.65,350.57,321.17,3.55,0000 0000 0000 0000 000000
2013-07-23 01:15:26,-0.03,0.04,0.00,28.09,30.40,32.93,6.00,32.00,1023.45,2043.68,3453.65,3335.00,3625.48,350.79,321.35,3.56,0000 0000 0000 0000 000000
2013-07-23 01:16:26,0.03,0.04,0.00,28.06,30.40,32.94,5.79,31.92,1023.45,2043.54,3453.49,3335.00,3625.33,349.80,320.17,3.56,0000 0000 0000 0000 000000
2013-07-23 01:17:27,-0.11,0.04,0.00,28.05,30.40,32.95,5.92,31.67,1023.45,2043.38,3453.27,3335.00,3625.14,350.49,321.13,3.57,0000 0000 0000 0000 000000
2013-07-23 01:18:27,-0.06,0.04,0.00,28.03,30.42,32.95,5.86,31.67,1023.45,2043.27,3453.13,3334.97,3625.06,350.01,320.70,3.58,0000 0000 0000 0000 000000
2013-07-23 01:19:27,-0.04,0.04,0.00,28.05,30.42,32.95,5.80,31.67,1023.45,2043.19,3453.07,3334.97,3625.03,350.35,320.62,3.58,0000 0000 0000 0000 000000
2013-07-23 01:20:27,-0.04,0.04,0.00,28.08,30.42,32.95,5.87,31.88,1023.45,2043.19,3453.03,3334.97,3625.01,349.02,319.76,3.59,0000 0000 0000 0000 000000
2013-07-23 01:21:28,0.02,0.04,0.00,28.08,30.42,32.95,5.97,32.08,1023.45,2043.19,3453.03,3334.96,3625.00,349.46,320.15,3.59,0000 0000 0000 0000 000000
2013-07-23 01:22:28,-0.01,0.04,0.00,28.07,30.43,32.96,5.88,31.79,1023.45,2043.14,3453.01,3334.93,3625.00,349.50,320.20,3.60,0000 0000 0000 0000 000000
2013-07-23 01:23:28,-0.03,0.04,0.00,28.08,30.45,32.97,5.83,31.33,1023.45,2043.10,3453.00,3334.80,3625.00,349.39,320.07,3.61,0000 0000 0000 0000 000000
2013-07-23 01:24:28,0.01,0.04,0.00,28.09,30.45,33.00,5.83,31.42,1023.44,2043.05,3453.00,3334.53,3624.99,349.65,320.24,3.61,0000 0000 0000 0000 000000
2013-07-23 01:25:29,0.01,0.04,0.00,28.11,30.45,33.00,6.03,31.88,1023.45,2043.02,3453.00,3334.47,3624.99,350.57,321.14,3.62,0000 0000 0000 0000 000000
2013-07-23 01:26:29,-0.01,0.04,0.00,28.14,30.45,32.99,5.98,31.58,1023.45,2043.02,3453.00,3334.32,3624.99,349.92,320.51,3.62,0000 0000 0000 0000 000000
2013-07-23 01:27:29,0.01,0.04,0.00,28.14,30.47,33.00,5.84,31.79,1023.45,2043.00,3453.00,3334.17,3624.95,349.75,320.44,3.63,0000 0000 0000 0000 000000
2013-07-23 01:28:29,0.03,0.04,0.00,28.15,30.47,32.99,5.81,31.71,1023.45,2043.00,3452.97,3334.11,3624.89,349.30,319.79,3.63,0000 0000 0000 0000 000000
2013-07-23 01:29:30,0.02,0.04,0.00,28.11,30.47,32.99,5.97,31.79,1023.45,2043.00,3452.97,3334.04,3624.73,349.98,320.51,3.64,0000 0000 0000 0000 000000
2013-07-23 01:30:30,0.03,0.04,0.00,28.11,30.47,33.00,6.04,31.83,1023.45,2043.01,3452.90,3334.02,3624.51,350.47,321.25,3.65,0000 0000 0000 0000 000000
2013-07-23 01:31:30,0.03,0.04,0.00,28.15,30.48,33.00,6.00,31.83,1023.45,2043.01,3452.90,3334.02,3624.37,350.17,320.73,3.65,0000 0000 0000 0000 000000
2013-07-23 01:32:30,0.02,0.04,0.00,28.19,30.50,33.01,6.15,31.83,1023.45,2043.00,3452.75,3334.00,3624.25,351.12,320.50,3.66,0000 0000 0000 0000 000000
2013-07-23 01:33:31,0.03,0.04,0.00,28.18,30.50,33.01,5.88,31.50,1023.45,2043.00,3452.50,3334.00,3624.14,350.19,320.72,3.66,0000 0000 0000 0000 000000
2013-07-23 01:34:31,0.05,0.04,0.00,28.15,30.50,33.02,5.77,31.83,1023.45,2043.00,3452.30,3334.00,3624.06,349.50,320.12,3.67,0000 0000 0000 0000 000000
2013-07-23 01:35:31,0.02,0.04,0.00,28.15,30.50,33.04,5.97,32.08,1023.45,2043.00,3452.24,3334.00,3624.04,349.76,320.35,3.68,0000 0000 0000 0000 000000
2013-07-23 01:36:31,0.00,0.04,0.00,28.18,30.51,33.03,5.81,31.58,1023.45,2043.00,3452.15,3334.00,3624.02,349.43,320.02,3.68,0000 0000 0000 0000 000000
2013-07-23 01:37:32,0.01,0.04,0.00,28.19,30.52,33.04,5.89,31.88,1023.45,2043.00,3452.09,3334.00,3624.01,350.00,321.00,3.69,0000 0000 0000 0000 000000
2013-07-23 01:38:32,0.00,0.04,0.00,28.17,30.52,33.05,5.68,31.42,1023.45,2043.00,3452.04,3334.00,3624.01,349.64,320.47,3.69,0000 0000 0000 0000 000000
2013-07-23 01:39:32,0.00,0.04,0.00,28.20,30.52,33.06,5.84,32.08,1023.45,2043.00,3452.04,3334.00,3624.00,349.21,319.87,3.70,0000 0000 0000 0000 000000
2013-07-23 01:40:32,0.00,0.04,0.00,28.20,30.53,33.07,5.82,31.83,1023.45,2043.00,3452.02,3333.99,3624.00,349.74,320.65,3.71,0000 0000 0000 0000 000000
2013-07-23 01:41:33,0.00,0.04,0.00,28.20,30.54,33.07,5.97,32.04,1023.45,2043.00,3452.00,3333.92,3624.00,350.27,320.45,3.71,0000 0000 0000 0000 000000
2013-07-23 01:42:33,0.01,0.04,0.00,28.25,30.55,33.08,5.98,32.13,1023.44,2042.99,3451.99,3333.77,3623.99,350.52,320.94,3.72,0000 0000 0000 0000 000000
2013-07-23 01:43:33,0.03,0.04,0.00,28.27,30.55,33.09,5.81,32.08,1023.45,2042.98,3451.98,3333.41,3623.92,350.30,320.71,3.72,0000 0000 0000 0000 000000
2013-07-23 01:44:33,0.07,0.04,0.00,28.24,30.55,33.10,6.01,31.96,1023.45,2042.98,3451.98,3333.25,3623.82,349.73,320.22,3.73,0000 0000 0000 0000 000000
2013-07-23 01:45:34,0.01,0.04,0.00,28.25,30.56,33.10,5.78,31.83,1023.43,2042.98,3451.94,3333.17,3623.80,350.69,321.09,3.73,0000 0000 0000 0000 000000
2013-07-23 01:46:34,0.04,0.04,0.00,28.27,30.57,33.10,5.95,31.96,1023.43,2042.98,3451.94,3333.13,3623.78,350.54,320.93,3.74,0000 0000 0000 0000 000000
2013-07-23 01:47:34,0.01,0.04,0.00,28.31,30.57,33.09,5.99,31.96,1023.44,2042.98,3451.93,3333.08,3623.55,350.52,320.61,3.75,0000 0000 0000 0000 000000
2013-07-23 01:48:34,0.02,0.04,0.00,28.32,30.57,33.11,5.87,31.96,1023.43,2042.98,3451.95,3333.06,3623.47,350.62,320.94,3.75,0000 0000 0000 0000 000000
2013-07-23 01:49:35,-0.00,0.04,0.00,28.31,30.57,33.11,5.88,32.04,1023.43,2042.97,3451.93,3333.06,3623.43,349.64,320.29,3.76,0000 0000 0000 0000 000000
2013-07-23 01:50:35,0.02,0.04,0.00,28.29,30.58,33.11,5.81,31.92,1023.43,2042.92,3451.81,3333.03,3623.20,350.39,320.22,3.76,0000 0000 0000 0000 000000
2013-07-23 01:51:35,0.00,0.04,0.00,28.29,30.60,33.12,5.97,31.71,1023.40,2042.89,3451.75,3333.01,3623.09,349.73,320.17,3.77,0000 0000 0000 0000 000000
2013-07-23 01:52:35,0.01,0.04,0.00,28.33,30.60,33.11,6.01,32.08,1023.43,2042.89,3451.75,3333.01,3623.05,350.79,321.07,3.78,0000 0000 0000 0000 000000
2013-07-23 01:53:36,0.01,0.04,0.00,28.33,30.60,33.11,5.93,31.96,1023.43,2042.77,3451.45,3333.00,3623.02,350.21,320.54,3.78,0000 0000 0000 0000 000000
2013-07-23 01:54:36,-0.07,0.04,0.00,28.31,30.60,33.13,5.71,32.00,1023.45,2042.69,3451.28,3333.00,3623.00,349.43,319.40,3.79,0000 0000 0000 0000 000000
2013-07-23 01:55:36,-0.03,0.04,0.00,28.30,30.62,33.14,5.88,32.17,1023.44,2042.60,3451.10,3333.00,3623.00,349.53,319.96,3.79,0000 0000 0000 0000 000000
2013-07-23 01:56:36,-0.04,0.04,0.00,28.31,30.62,33.15,5.87,32.21,1023.45,2042.50,3451.04,3333.00,3623.00,350.30,320.67,3.80,0000 0000 0000 0000 000000
2013-07-23 01:57:37,-0.07,0.04,0.00,28.30,30.62,33.14,5.98,32.08,1023.44,2042.52,3451.02,3333.00,3623.00,350.36,320.82,3.80,0000 0000 0000 0000 000000
2013-07-23 01:58:37,0.02,0.04,0.00,28.28,30.62,33.14,5.92,32.00,1023.45,2042.48,3451.00,3333.00,3623.00,350.57,320.78,3.81,0000 0000 0000 0000 000000
2013-07-23 01:59:37,-0.05,0.04,0.00,28.30,30.63,33.17,5.87,32.08,1023.44,2042.27,3451.00,3332.97,3623.00,349.96,320.18,3.82,0000 0000 0000 0000 000000
2013-07-23 02:00:37,-0.15,0.04,0.00,28.31,30.65,33.16,5.96,31.88,1023.44,2042.20,3451.00,3332.93,3622.98,350.11,320.58,3.82,0000 0000 0000 0000 000000
2013-07-23 02:01:37,-0.03,0.04,0.00,28.32,30.65,33.17,5.90,32.04,1023.44,2042.18,3451.00,3332.92,3622.95,350.73,320.76,3.83,0000 0000 0000 0000 000000
2013-07-23 02:02:38,0.00,0.04,0.00,28.39,30.65,33.19,5.94,31.54,1023.45,2042.17,3451.00,3332.91,3622.91,351.26,321.56,3.83,0000 0000 0000 0000 000000
2013-07-23 02:03:38,-0.02,0.04,0.00,28.41,30.65,33.19,5.83,31.83,1023.45,2042.13,3451.00,3332.91,3622.91,349.99,320.29,3.84,0000 0000 0000 0000 000000
2013-07-23 02:04:38,-0.02,0.04,0.00,28.41,30.67,33.20,5.94,32.33,1023.45,2042.07,3450.99,3332.67,3622.70,350.23,320.50,3.85,0000 0000 0000 0000 000000
2013-07-23 02:05:38,0.04,0.04,0.00,28.42,30.67,33.19,5.90,32.13,1023.45,2042.04,3450.98,3332.41,3622.39,350.34,320.60,3.85,0000 0000 0000 0000 000000
2013-07-23 02:06:38,0.08,0.04,0.00,28.39,30.67,33.19,5.92,32.17,1023.45,2042.04,3450.99,3332.23,3622.22,349.45,319.80,3.86,0000 0000 0000 0000 000000
2013-07-23 02:07:38,0.05,0.04,0.00,28.39,30.67,33.20,5.80,32.00,1023.45,2042.02,3450.97,3332.17,3622.15,350.34,320.63,3.86,0000 0000 0000 0000 000000
2013-07-23 02:08:39,0.01,0.04,0.00,28.36,30.68,33.21,6.07,31.75,1023.45,2042.00,3450.84,3332.09,3622.07,350.43,320.74,3.87,0000 0000 0000 0000 000000
2013-07-23 02:09:39,0.04,0.04,0.00,28.35,30.69,33.22,5.90,31.83,1023.45,2042.00,3450.58,3332.03,3622.02,349.80,320.17,3.88,0000 0000 0000 0000 000000
2013-07-23 02:10:39,0.03,0.04,0.00,28.40,30.70,33.23,6.06,32.13,1023.45,2042.01,3450.60,3332.01,3622.00,349.93,320.25,3.88,0000 0000 0000 0000 000000
2013-07-23 02:11:39,0.01,0.04,0.00,28.41,30.70,33.24,5.98,32.00,1023.45,2042.01,3450.50,3332.00,3622.00,350.96,321.17,3.89,0000 0000 0000 0000 000000
2013-07-23 02:12:39,0.01,0.04,0.00,28.40,30.70,33.23,6.03,32.21,1023.45,2042.00,3450.27,3332.00,3622.00,350.53,320.79,3.89,0000 0000 0000 0000 000000
2013-07-23 02:13:39,0.03,0.04,0.00,28.40,30.71,33.23,5.93,32.08,1023.45,2042.00,3450.14,3332.00,3622.00,350.23,320.40,3.90,0000 0000 0000 0000 000000
2013-07-23 02:14:40,0.01,0.04,0.00,28.41,30.72,33.25,5.95,31.63,1023.45,2042.00,3450.08,3331.99,3622.00,350.78,321.01,3.90,0000 0000 0000 0000 000000
2013-07-23 02:15:40,0.01,0.04,0.00,28.46,30.72,33.25,5.96,32.04,1023.45,2042.00,3450.05,3331.99,3622.00,349.77,320.52,3.91,0000 0000 0000 0000 000000
2013-07-23 02:16:40,0.00,0.04,0.00,28.46,30.72,33.26,5.97,32.21,1023.45,2042.00,3450.02,3331.98,3621.97,350.63,320.81,3.92,0000 0000 0000 0000 000000
2013-07-23 02:17:41,0.01,0.04,0.00,28.45,30.73,33.27,5.84,31.75,1023.45,2042.00,3450.00,3331.94,3621.86,350.03,320.28,3.92,0000 0000 0000 0000 000000
2013-07-23 02:18:41,0.02,0.04,0.00,28.44,30.75,33.26,5.84,31.79,1023.45,2042.00,3449.99,3331.86,3621.61,350.13,320.38,3.93,0000 0000 0000 0000 000000
2013-07-23 02:19:41,0.05,0.04,0.00,28.47,30.75,33.28,5.90,31.92,1023.45,2042.00,3449.97,3331.75,3621.42,350.12,320.34,3.93,0000 0000 0000 0000 000000
2013-07-23 02:20:41,0.06,0.04,0.00,28.49,30.75,33.27,5.88,32.04,1023.45,2042.00,3449.95,3331.44,3621.22,350.85,321.00,3.94,0000 0000 0000 0000 000000
2013-07-23 02:21:41,0.08,0.04,0.00,28.49,30.75,33.27,5.86,31.92,1023.45,2042.00,3449.97,3331.40,3621.17,349.50,319.75,3.95,0000 0000 0000 0000 000000
2013-07-23 02:22:42,0.01,0.04,0.00,28.49,30.76,33.28,5.84,31.92,1023.45,2041.99,3449.96,3331.27,3621.09,349.93,319.70,3.95,0000 0000 0000 0000 000000
2013-07-23 02:23:42,0.02,0.04,0.00,28.49,30.77,33.30,5.97,31.83,1023.45,2041.99,3449.94,3331.17,3621.03,350.50,320.67,3.96,0000 0000 0000 0000 000000
2013-07-23 02:24:42,0.03,0.04,0.00,28.50,30.77,33.30,6.08,32.08,1023.45,2041.99,3449.80,3331.08,3621.01,350.69,320.83,3.96,0000 0000 0000 0000 000000
2013-07-23 02:25:42,0.04,0.04,0.00,28.50,30.77,33.31,6.11,32.00,1023.45,2041.98,3449.50,3331.03,3621.00,350.64,320.89,3.97,0000 0000 0000 0000 000000
2013-07-23 02:26:42,0.05,0.04,0.00,28.52,30.78,33.31,5.88,31.75,1023.45,2041.98,3449.24,3331.00,3621.00,349.12,319.29,3.97,0000 0000 0000 0000 000000
2013-07-23 02:27:43,0.03,0.05,0.00,28.51,30.79,33.31,5.96,31.92,1023.45,2041.98,3449.11,3331.00,3621.00,350.32,320.48,3.98,0000 0000 0000 0000 000000
2013-07-23 02:28:43,0.01,0.05,0.00,28.53,30.80,33.31,5.89,31.96,1023.45,2041.95,3449.05,3331.00,3620.99,351.07,321.15,3.99,0000 0000 0000 0000 000000
2013-07-23 02:29:43,-0.01,0.05,0.00,28.55,30.80,33.32,5.99,31.33,1023.45,2041.93,3449.03,3331.00,3620.93,350.22,320.35,3.99,0000 0000 0000 0000 000000
2013-07-23 02:30:43,0.00,0.05,0.00,28.53,30.80,33.33,5.91,31.96,1023.45,2041.86,3449.02,3330.99,3620.69,350.78,320.63,4.00,0000 0000 0000 0000 000000
2013-07-23 02:31:44,-0.05,0.04,0.00,28.54,30.81,33.32,5.96,32.00,1023.45,2041.79,3449.00,3330.98,3620.60,350.33,320.46,4.00,0000 0000 0000 0000 000000
2013-07-23 02:32:44,0.00,0.04,0.00,28.58,30.82,33.33,5.89,31.88,1023.45,2041.73,3449.00,3330.95,3620.48,349.92,320.04,4.01,0000 0000 0000 0000 000000
2013-07-23 02:33:44,-0.03,0.04,0.00,28.59,30.82,33.33,5.98,32.13,1023.46,2041.58,3449.00,3330.87,3620.28,350.35,320.44,4.02,0000 0000 0000 0000 000000
2013-07-23 02:34:44,-0.06,0.04,0.00,28.61,30.82,33.36,5.92,32.17,1023.45,2041.47,3449.00,3330.63,3620.13,349.96,320.05,4.02,0000 0000 0000 0000 000000
2013-07-23 02:35:44,-0.01,0.04,0.00,28.58,30.83,33.34,5.82,32.29,1023.45,2041.42,3448.99,3330.39,3620.05,350.13,320.23,4.03,0000 0000 0000 0000 000000
2013-07-23 02:36:45,0.00,0.04,0.00,28.54,30.84,33.37,6.02,32.13,1023.47,2041.38,3448.97,3330.25,3620.02,349.87,319.44,4.03,0000 0000 0000 0000 000000